Back to catalog

BREEZE-M DEB

LostHEO
NORAD 34254·DEBRIS·🇷🇺 Russia

Launched Feb 28, 2006 from Baikonur Cosmodrome

Loading…

Next Passes (next 24 hours)

TLE

StaleSource: Space-Track

Epoch: Feb 19, 2024, 03:45 UTC

1 34254U 06006BV  24050.15649166  .00015458  00000-0  84573-2 0  9991
2 34254  51.6060 278.4899 4251520 218.0093 102.7519  6.74354802338577

Track BREEZE-M DEB in real time with AllMySat

Download on the App Store